Regional Weather Roundup
Issued by NWS

Home | Current Version | Previous Version | Text Only | Print | Product List | Glossary Off
Versions: 1 2 3 4 5 6 7 8 9 10 11 12 13 14 15 16 17 18 19 20 21 22 23 24 25 26 27 28 29 30 31 32 33 34 35 36 37 38 39 40 41 42 43 44 45 46 47 48 49 50

000
ASUS43 KLOT 222003
RWRIL

ILLINOIS REGIONAL WEATHER ROUNDUP
NATIONAL WEATHER SERVICE CHICAGO/ROMEOVILLE IL
300 PM CDT SAT APR 22 2017

NOTE: "FAIR" INDICATES FEW OR NO CLOUDS BELOW 12,000 FEET WITH NO
SIGNIFICANT WEATHER AND/OR OBSTRUCTIONS TO VISIBILITY.

* THESE STATIONS ARE NOT UNDER NWS QUALITY CONTROL. THEY ALSO MAY NOT
  REPORT WEATHER SUCH AS PRECIPITATION OR FOG.

ILZ001-002-007-009-015-016-024-222100-
NORTHWEST ILLINOIS

CITY           SKY/WX    TMP DP  RH WIND       PRES   REMARKS
MOLINE         SUNNY     63  33  32 NE12G22   30.17F
STERLING*      SUNNY     62  33  33 E12G17    30.17F
SAVANNA*       SUNNY     63  31  30 NE8       30.18F
$$

ILZ003-004-008-010-011-017-018-222100-
NORTH CENTRAL ILLINOIS

CITY           SKY/WX    TMP DP  RH WIND       PRES   REMARKS
ROCKFORD       MOSUNNY   64  29  26 VRB5      30.18F
FREEPORT*      SUNNY     61  29  30 NE9G16    30.20F
ROCHELLE*      SUNNY     62  31  31 E7        30.17F
DE KALB*       SUNNY     61  28  28 NE9       30.18F
PERU*          SUNNY     60  29  31 NE13G18   30.15F
$$

ILZ005-006-012>014-019>023-222100-
NORTHEAST ILLINOIS

CITY           SKY/WX    TMP DP  RH WIND       PRES   REMARKS
CHICAGO-OHARE  MOSUNNY   58  24  27 NE10      30.17F
CHICAGO-MIDWAY PTSUNNY   58  27  30 NE15G24   30.17F
AURORA         SUNNY     61  27  27 E13G22    30.17F
LANSING*       MOSUNNY   52  37  55 N10       30.18F
JOLIET*        SUNNY     60  28  29 NE16      30.16F
WAUKEGAN       SUNNY     54  27  35 NE7       30.18F
DUPAGE AIRPORT SUNNY     59  28  30 NE12      30.17S
KANKAKEE*      PTSUNNY   58  29  33 N12G22    30.14F
WHEELING       SUNNY     57  26  30 NE10      30.19F
MORRIS*        SUNNY     61  25  25 NE9       30.15F
NORTHERLY ISL    N/A     49  33  54 N13         N/A
$$

LMZ740>746-222100-
SOUTHERN LAKE MICHIGAN

STATION/POSITION SKY/WX   TEMP    WIND        PRES    VSBY  WAVE
                          AIR SEA DIR/SP/G                  HT/PER
                          (F)     (DEG/KT/KT) (MB)    (MI)  (FT/S)
HARRISON CRIB              45      10/ 15/ 16   N/A
BURNHAM HARBOR             50      10/  9/ 14   N/A
CALUMET HARBOR             47     340/ 12/ 16 1021.7F
BURNS HARBOR               44      30/  9/ 10 1022.4F
MICHIGAN CITY              42      10/  8/  9   N/A
ST. JOSEPH                 45 49   30/ 12/ 14 1022.5F         4/ 3
$$

ILZ025>027-034>036-040-047-049-050-058-095>099-222100-
WEST-CENTRAL ILLINOIS

CITY           SKY/WX    TMP DP  RH WIND       PRES   REMARKS
QUINCY         MOSUNNY   62  35  36 NE23G33   30.10F
MACOMB*        SUNNY     62  35  36 NE13G24   30.15F
JACKSONVILLE*  MOSUNNY   62  35  37 NE22G30   30.10F
PITTSFIELD*    MOSUNNY   62  38  40 NE17G25   30.10F
$$

ILZ028>032-037-038-041>044-048-051>054-059>061-222100-
CENTRAL ILLINOIS

CITY           SKY/WX    TMP DP  RH WIND       PRES   REMARKS
PONTIAC        SUNNY     63  30  28 NE15G21   30.14F
BLOOMINGTON    MOSUNNY   62  33  33 NE22G30   30.11F
DECATUR        MOSUNNY   62  38  40 NE18G30   30.08F
PEORIA         SUNNY     63  33  32 NE17G26   30.12F
LACON*         SUNNY     63  33  32 E15G22    30.13F
LINCOLN*       SUNNY     62  35  36 E20G25    30.10F
SPRINGFIELD    MOSUNNY   65  37  35 NE20G31   30.08F
TAYLORVILLE    PTSUNNY   58  34  39 E15G32    30.08F
$$

ILZ033-039-045-046-055>057-062-063-222100-
EAST-CENTRAL ILLINOIS

CITY           SKY/WX    TMP DP  RH WIND       PRES   REMARKS
CHAMPAIGN      SUNNY     62  33  33 NE17G32   30.08F
RANTOUL*       CLOUDY    64  32  30 NE21G32   30.09F
MATTOON        MOSUNNY   55  36  48 E20G29    30.07F
PARIS*         CLOUDY    55  36  49 NE17G24   30.10S
$$

ILZ079-100>102-222100-
SOUTHWEST ILLINOIS

CITY           SKY/WX    TMP DP  RH WIND       PRES   REMARKS
ALTON          CLOUDY    54  37  54 NE13G24   30.07F
BELLEVILLE     CLOUDY    54  42  64 N16G22    30.04F
CAHOKIA*       CLOUDY    55  39  54 NE17      30.06F
SPARTA*        LGT RAIN  49  44  83 N9        30.04S
$$

ILZ064>066-069>071-074>076-080>082-084>086-088>090-092>094-222100-
SOUTH-CENTRAL ILLINOIS

CITY           SKY/WX    TMP DP  RH WIND       PRES   REMARKS
CARBONDALE     CLOUDY    51  48  89 N13       30.00F
CAIRO*         CLOUDY    52  50  93 N8        29.95F
EFFINGHAM*     CLOUDY    55  39  53 NE8G16    30.08S
MARION         LGT RAIN  54  52  94 NE12      30.00S
MT. VERNON     CLOUDY    53  43  68 NE9       30.02F
CENTRALIA*     CLOUDY    54  44  67 NE12G18   30.03F
SALEM*         CLOUDY    55  40  56 NE12G18   30.03F
METROPOLIS*    CLOUDY    54  49  82 NE9G20    29.96F
$$

ILZ067-068-072-073-078-083-087-091-222100-
SOUTHEAST ILLINOIS

CITY           SKY/WX    TMP DP  RH WIND       PRES   REMARKS
LAWRENCEVILLE  CLOUDY    58  43  57 NE18      30.03F
FLORA*         CLOUDY    55  43  63 NE13G18   30.04F
FAIRFIELD*     CLOUDY    54  43  68 NE8       30.02F
HARRISBURG*    CLOUDY    54  49  83 NE10      29.99F
ROBINSON*      PTSUNNY   56  41  56 NE14G23   30.05F
CARMI*         CLOUDY    53  46  77 NE15      30.00F
$$

ABBREVIATIONS USED IN REMARKS
   TC - TEMPERATURE IN CELSIUS
  WCI - WIND CHILL INDEX
   HX - HEAT INDEX
  VSB - VISIBILITY
$$





USA.gov is the U.S. government's official web portal to all federal, state and local government web resources and services.